Regional Weather Roundup
Issued by NWS

Home | Current Version | Previous Version | Text Only | Print | Product List | Glossary Off
Versions: 1 2 3 4 5 6 7 8 9 10 11 12 13 14 15 16 17 18 19 20 21 22 23 24 25 26 27 28 29 30 31 32 33 34 35 36 37 38 39 40 41 42 43 44 45 46 47 48 49 50

000
ASUS43 KLSX 241457
RWRMO

WEATHER SUMMARY FOR MISSOURI
NATIONAL WEATHER SERVICE SPRINGFIELD MO
1000 AM CDT WED MAY 24 2017

NOTE: "FAIR" INDICATES FEW OR NO CLOUDS BELOW 12,000 FEET WITH NO
       SIGNIFICANT WEATHER AND/OR OBSTRUCTIONS TO VISIBILITY.
       CURRENT SKY AND/OR WEATHER CONDITIONS ARE NOT AVAILABLE FOR
       CHILLICOTHE AND FARMINGTON.

MOZ001>031-035>038-043-044-053-054-241600-
...NORTHERN AND WESTERN MISSOURI...

CITY           SKY/WX    TMP DP  RH WIND       PRES   REMARKS
KANSAS CTY INT CLOUDY    54  49  83 NW12      29.71S
LEE`S SUMMIT   CLOUDY    52  51  97 NW9       29.71S
ST JOSEPH      CLOUDY    56  50  80 N17       29.72S
CHILLICOTHE      N/A     57  50  77 N9        29.69S

$$
MOZ066>068-077>081-088>096-101>105-241600-
...SOUTHWEST MISSOURI...

CITY           SKY/WX    TMP DP  RH WIND       PRES   REMARKS
SPRINGFIELD    MOSUNNY   56  47  71 NW10      29.69S
JOPLIN         PTSUNNY   58  49  72 NW12      29.74F
BRANSON        PTSUNNY   55  46  71 NW13      29.70S

$$
MOZ032>034-039>042-045>050-055>058-069>072-241600-
...CENTRAL MISSOURI...

CITY           SKY/WX    TMP DP  RH WIND       PRES   REMARKS
COLUMBIA       NOT AVBL
JEFFERSON CITY MOSUNNY   59  48  67 W10       29.64F
ROLLA          PTSUNNY   57  50  77 NW10      29.63S
SEDALIA        CLOUDY    54  50  86 NW12      29.69S
WARRENSBURG    CLOUDY    54  46  76 NW9       29.69F

$$
MOZ051-052-059>065-241600-
...EAST CENTRAL MISSOURI...

CITY           SKY/WX    TMP DP  RH WIND       PRES   REMARKS
ST LOUIS INTL  PTSUNNY   63  50  62 NW12      29.60S

$$
MOZ072>076-082>087-097>100-106>115-241600-
...SOUTH CENTRAL AND SOUTHEAST MISSOURI...

CITY           SKY/WX    TMP DP  RH WIND       PRES   REMARKS
CAPE GIRARDEAU MOSUNNY   63  51  65 N13       29.56S
POPLAR BLUFF   MOSUNNY   63  54  72 NW9       29.58F
WEST PLAINS    CLOUDY    57  47  69 NW8       29.65F

$$



USA.gov is the U.S. government's official web portal to all federal, state and local government web resources and services.